[[{"header":{"parameterUnit":"m.s-1","parameterCategory":1,"la1":30.2991,"la2":30.254,"lo1":-89.0895,"lo2":-89.0444,"dy":0.0017,"dx":0.0017,"nx":28,"ny":28,"refTime":"2026-02-09T09:00:00:Z","depth":0,"parameterNumber":2,"parameterNumberName":"U-component_of_WINDS"},"data":[0,0,0,0,0,0,0,0,0,0,0,0,0,0,0,0,0,0,0,0,0,0,0,0,0,0,0,0,0,0,0,0,0,0,0,0,0,0,0,0,0,0,0,0,0,0,0,0,0,0,0,0,0,0,0,0,0,0,0.3491,0.3491,0,0.3566,0.3567,0.3568,0.3567,0.3566,0.3565,0.3564,0.3645,0.3648,0.3651,0,0,0,0,0,0,0,0,0,0,0,0,0,0.3349,0.3351,0.349,0.3491,0.3492,0.3566,0.3567,0.3568,0.3567,0.3566,0.3564,0.3563,0.3644,0.3647,0.3651,0,0,0,0,0,0,0,0,0,0,0,0,0,0.3416,0.3352,0.349,0.35,0.3502,0.3566,0.3567,0.3569,0.3567,0.3566,0.3564,0.3563,0.3643,0.3647,0.3652,0.3712,0,0,0.3666,0.3668,0,0,0,0,0,0,0,0,0.3412,0.3421,0.3498,0.35,0.3502,0.3555,0.3547,0.3617,0.3567,0.3543,0.3564,0.3562,0.3617,0.3623,0.3641,0.3715,0.3719,0.3666,0.3669,0.3671,0.3673,0,0,0,0,0,0,0,0.3408,0.3418,0.3521,0.3499,0.3501,0.3503,0.351,0.356,0.3587,0.3545,0.3545,0.3553,0.3617,0.3636,0.3643,0.372,0.3666,0.367,0.3673,0.3675,0.3851,0.3852,0,0,0,0,0,0,0.34,0.3414,0.3518,0.3523,0.3452,0.3506,0.3515,0.354,0.3587,0.3592,0.3555,0.3553,0.3629,0.3637,0.3646,0.3721,0.3671,0.3676,0.3678,0.3849,0.3851,0.3853,0,0,0,0,0,0,0.3397,0.3409,0.3515,0.3469,0.3482,0.351,0.3538,0.3542,0.3561,0.3594,0.36,0.3569,0.3628,0.3639,0.3696,0.3724,0.3678,0.3682,0.3847,0.385,0.3852,0.3871,0,0,0,0,0,0,0.3393,0.3408,0.343,0.3469,0.3485,0.3562,0.354,0.3545,0.3569,0.3568,0.3609,0.3615,0.3628,0.3689,0.37,0.373,0.3686,0.3844,0.3848,0.3851,0.3868,0.3874,0.388,0,0,0,0,0,0.3388,0.3433,0.3431,0.3444,0.3512,0.3564,0.3573,0.3586,0.3571,0.3594,0.3616,0.3613,0.3718,0.3694,0.3708,0.3739,0.3843,0.3847,0.3851,0.3866,0.3873,0.3879,0,0,0,0,0,0,0.3397,0.3438,0.3437,0.3495,0.3526,0.3564,0.3593,0.3593,0.363,0.3627,0.3643,0.3653,0.371,0.373,0.3702,0.3801,0.3779,0.3786,0.3786,0.3793,0.3799,0.3794,0.369,0,0,0,0,0,0.3406,0.3443,0.3477,0.3526,0.3541,0.3564,0.3587,0.3595,0.3628,0.3642,0.3667,0.3701,0.3742,0.3768,0.3807,0.3871,0.3881,0.3899,0.3904,0.3909,0.3915,0.3953,0.3962,0.3867,0.3867,0.3867,0,0,0.3425,0.3452,0.3474,0.3528,0.3553,0.3593,0.3576,0.3618,0.3649,0.3648,0.3704,0.3724,0.3762,0.3823,0.3851,0.3842,0.3944,0.3914,0.3917,0.3922,0.3959,0.3968,0.3976,0.387,0.3869,0.3869,0,0,0.348,0.3503,0.3547,0.3572,0.361,0.3625,0.3636,0.3674,0.3687,0.3742,0.3744,0.3781,0.385,0.3878,0.3902,0.3969,0.3969,0.3981,0.4012,0.4048,0.4056,0.4063,0.4089,0.4099,0.3987,0.3987,0.3987,0,0.3499,0.3558,0.3569,0.3613,0.3638,0.3638,0.3684,0.3709,0.3758,0.3776,0.3763,0.3852,0.3878,0.3947,0.3963,0.3981,0.3996,0.3977,0.4053,0.4061,0.4067,0.4093,0.4103,0.3989,0.3988,0.3988,0.3988,0,0.3581,0.3622,0.3653,0.37,0.3728,0.3772,0.3793,0.382,0.3825,0.3843,0.3901,0.3932,0.3978,0.3995,0.4001,0.4066,0.4059,0.405,0.4029,0.4077,0.4102,0.4112,0.3991,0.399,0.399,0.3989,0,0,0.3644,0.3697,0.3709,0.3731,0.3773,0.3806,0.3852,0.3897,0.3921,0.3955,0.3995,0.4054,0.4047,0.4074,0.4083,0.4115,0.417,0.4102,0.4104,0.4116,0.4247,0.4255,0.4266,0.4169,0.4171,0.4172,0.4244,0,0.3705,0.3785,0.3797,0.3868,0.3908,0.391,0.395,0.3981,0.3999,0.4037,0.4056,0.4099,0.4085,0.4101,0.4133,0.4156,0.4196,0.4151,0.4209,0.4211,0.4202,0.4278,0.4286,0.4353,0.4254,0.4255,0.4256,0,0.3787,0.3823,0.3898,0.3937,0.3954,0.399,0.4033,0.4068,0.4105,0.4116,0.4146,0.4152,0.4201,0.4176,0.4247,0.4215,0.424,0.4255,0.4258,0.4266,0.4238,0.4291,0.4374,0.4385,0.4271,0.427,0.4269,0,0.3829,0.3896,0.395,0.3969,0.4015,0.4041,0.4061,0.4096,0.4123,0.4161,0.4179,0.4223,0.4248,0.4282,0.4301,0.428,0.4371,0.4347,0.4383,0.4383,0.4404,0.4403,0.4495,0.4416,0.4416,0.4415,0.4415,0,0.3898,0.3944,0.397,0.4004,0.4057,0.4071,0.4123,0.4144,0.4175,0.4214,0.4218,0.4255,0.4275,0.4316,0.4331,0.4388,0.4399,0.4411,0.4415,0.4412,0.4411,0.443,0.4427,0.4418,0.4417,0.4417,0.4416,0,0.3954,0.3973,0.4033,0.4071,0.4082,0.412,0.4154,0.4188,0.4205,0.4255,0.4268,0.4296,0.4344,0.4365,0.4425,0.4435,0.4501,0.45,0.4489,0.4491,0.4527,0.4525,0.4637,0.4654,0.4561,0.4562,0.4562,0,0.3997,0.4033,0.4076,0.4102,0.4123,0.4165,0.4193,0.4209,0.4238,0.4283,0.4312,0.436,0.44,0.4477,0.4504,0.4551,0.4553,0.4589,0.456,0.4557,0.4557,0.4555,0.456,0.4595,0.4596,0.4596,0.4597,0,0.4073,0.4082,0.412,0.4164,0.4197,0.4232,0.4266,0.4287,0.4309,0.4342,0.4391,0.4422,0.4483,0.4531,0.458,0.4603,0.4605,0.4606,0.4617,0.4616,0.4609,0.4616,0.4506,0.4604,0.4603,0.4602,0.4602,0.4602,0.4127,0.4159,0.4195,0.424,0.4267,0.4299,0.4334,0.4356,0.4397,0.4447,0.4454,0.4508,0.4546,0.461,0.4635,0.4679,0.467,0.4686,0.4691,0.4695,0.4699,0.46,0.4687,0.4687,0.4687,0.4687,0.4687,0,0.4205,0.4228,0.4269,0.4317,0.4352,0.4349,0.4388,0.4418,0.4465,0.4499,0.4538,0.4596,0.4644,0.4675,0.4724,0.4753,0.4755,0.4765,0.4765,0.4771,0.4702,0.4689,0.4763,0.4763,0.4763,0.4763,0.4763,0.4763,0.425,0.4307,0.4319,0.439,0.4414,0.4465,0.4488,0.4519,0.4547,0.4611,0.465,0.467,0.4704,0.4756,0.48,0.4809,0.4828,0.4839,0.4847,0.4783,0.4775,0.4768,0.4755,0.4842,0.4842,0.4913,0.4913,0.4914]},{"header":{"parameterUnit":"m.s-1","parameterCategory":1,"la1":30.2991,"la2":30.254,"lo1":-89.0895,"lo2":-89.0444,"dy":0.0017,"dx":0.0017,"nx":28,"ny":28,"refTime":"2026-02-09T09:00:00:Z","depth":0,"parameterNumber":3,"parameterNumberName":"V-component_of_WINDS"},"data":[0,0,0,0,0,0,0,0,0,0,0,0,0,0,0,0,0,0,0,0,0,0,0,0,0,0,0,0,0,0,0,0,0,0,0,0,0,0,0,0,0,0,0,0,0,0,0,0,0,0,0,0,0,0,0,0,0,0,0.9249,0.925,0,0.932,0.9321,0.9322,0.9329,0.9329,0.9328,0.9327,0.9403,0.9406,0.9409,0,0,0,0,0,0,0,0,0,0,0,0,0,0.9123,0.9125,0.9249,0.925,0.9251,0.932,0.9321,0.9322,0.9329,0.9329,0.9328,0.9327,0.9403,0.9406,0.9409,0,0,0,0,0,0,0,0,0,0,0,0,0,0.9185,0.9126,0.9249,0.9263,0.9265,0.932,0.9321,0.9322,0.933,0.9329,0.9327,0.9326,0.9401,0.9405,0.9409,0.9457,0,0,0.9422,0.9424,0,0,0,0,0,0,0,0,0.9181,0.9189,0.926,0.9262,0.9264,0.9315,0.9305,0.9368,0.933,0.9305,0.9327,0.9326,0.9375,0.9381,0.9397,0.9461,0.9464,0.9422,0.9425,0.9427,0.9428,0,0,0,0,0,0,0,0.9177,0.9186,0.9277,0.9261,0.9263,0.9267,0.9274,0.9317,0.9346,0.9307,0.9308,0.9316,0.9376,0.9393,0.9399,0.9465,0.9422,0.9426,0.9428,0.943,0.9574,0.9575,0,0,0,0,0,0,0.9169,0.9183,0.9275,0.9279,0.9219,0.927,0.9278,0.93,0.9345,0.9351,0.9317,0.9316,0.9387,0.9394,0.9402,0.9463,0.9427,0.943,0.9433,0.9573,0.9574,0.9576,0,0,0,0,0,0,0.9167,0.9178,0.9272,0.9231,0.9243,0.9273,0.9297,0.9302,0.9319,0.9352,0.9358,0.9329,0.9386,0.9396,0.9444,0.9465,0.9432,0.9436,0.9571,0.9573,0.9575,0.9583,0,0,0,0,0,0,0.9163,0.9177,0.9194,0.9231,0.9246,0.9312,0.9298,0.9304,0.9325,0.9325,0.9365,0.9371,0.9386,0.9437,0.9448,0.947,0.9439,0.9569,0.9572,0.9574,0.9581,0.9585,0.9589,0,0,0,0,0,0.9159,0.9193,0.9195,0.9206,0.9268,0.9313,0.9321,0.9337,0.9327,0.9346,0.9368,0.9369,0.9461,0.9442,0.9454,0.9478,0.9568,0.9571,0.9574,0.9579,0.9584,0.9589,0,0,0,0,0,0,0.9158,0.9199,0.92,0.9248,0.9277,0.9314,0.9338,0.9341,0.9374,0.9373,0.9392,0.9401,0.9449,0.9468,0.9447,0.9528,0.9514,0.9519,0.9514,0.9519,0.9522,0.9518,0.9442,0,0,0,0,0,0.9164,0.9196,0.9229,0.9269,0.9283,0.9308,0.9328,0.9338,0.9369,0.9381,0.9407,0.9438,0.9474,0.9497,0.9532,0.9583,0.9594,0.9606,0.961,0.9613,0.9618,0.965,0.9656,0.9586,0.9586,0.9586,0,0,0.9175,0.9201,0.922,0.9269,0.9293,0.9327,0.9318,0.9354,0.9381,0.9387,0.9434,0.9454,0.949,0.954,0.9564,0.9558,0.9639,0.9617,0.9619,0.9623,0.9653,0.966,0.9666,0.9588,0.9588,0.9587,0,0,0.9215,0.9237,0.9273,0.9296,0.9332,0.9348,0.9357,0.9394,0.9407,0.9454,0.946,0.9492,0.9553,0.9579,0.9601,0.9651,0.9656,0.9662,0.9683,0.9714,0.9719,0.9724,0.9745,0.9752,0.9667,0.9667,0.9667,0,0.9226,0.9276,0.9291,0.9328,0.935,0.9357,0.9395,0.9417,0.9462,0.9479,0.9471,0.9548,0.9573,0.9631,0.9644,0.966,0.9672,0.9659,0.9717,0.9722,0.9727,0.9747,0.9755,0.9668,0.9668,0.9667,0.9667,0,0.9289,0.9324,0.9349,0.9393,0.9418,0.9455,0.9477,0.95,0.9508,0.9526,0.9575,0.9605,0.9647,0.9661,0.9669,0.9721,0.9717,0.9712,0.9699,0.9734,0.9754,0.9761,0.9669,0.9668,0.9668,0.9668,0,0,0.9331,0.9382,0.9392,0.9412,0.9452,0.9481,0.9519,0.9559,0.958,0.9611,0.9646,0.9697,0.9694,0.9719,0.973,0.9756,0.9798,0.9749,0.975,0.9759,0.986,0.9865,0.9874,0.98,0.9801,0.9803,0.9858,0,0.9377,0.9444,0.9459,0.9518,0.9552,0.9559,0.9593,0.9622,0.964,0.9673,0.9693,0.9731,0.9722,0.9737,0.9764,0.9787,0.9819,0.9783,0.9835,0.9836,0.9828,0.9883,0.9888,0.9939,0.9866,0.9867,0.9868,0,0.944,0.9472,0.9534,0.9572,0.9587,0.9616,0.9656,0.9686,0.972,0.9732,0.9759,0.9768,0.981,0.9793,0.9853,0.9828,0.985,0.9865,0.9868,0.9875,0.9856,0.9895,0.9956,0.9964,0.9879,0.9878,0.9878,0,0.9468,0.9527,0.9572,0.9589,0.9633,0.9654,0.9674,0.9706,0.973,0.9765,0.9781,0.982,0.9843,0.9874,0.9894,0.9879,0.9953,0.9937,0.9966,0.9966,0.9983,0.9982,1.0051,0.9993,0.9993,0.9993,0.9992,0,0.9519,0.9558,0.9586,0.9614,0.9658,0.9675,0.9718,0.9738,0.9767,0.9801,0.9809,0.9841,0.9864,0.9899,0.9915,0.9964,0.9973,0.9986,0.999,0.9987,0.9985,1.0003,1.0001,0.9995,0.9994,0.9994,0.9994,0,0.9558,0.9578,0.9629,0.9666,0.9676,0.9707,0.974,0.9769,0.9787,0.9829,0.984,0.9869,0.9912,0.9934,0.9987,0.9998,1.0054,1.0055,1.0043,1.0045,1.0074,1.0072,1.0158,1.0172,1.0102,1.0103,1.0103,0,0.9591,0.9621,0.9661,0.9684,0.9703,0.974,0.9764,0.9782,0.9808,0.985,0.9874,0.9917,0.9952,1.002,1.0047,1.0088,1.0092,1.0119,1.0098,1.0095,1.0096,1.0095,1.01,1.0124,1.0125,1.0125,1.0126,0,0.9648,0.9656,0.9691,0.9729,0.9758,0.9789,0.982,0.9839,0.9862,0.9891,0.9934,0.9961,1.0016,1.0059,1.0103,1.0125,1.0131,1.0132,1.0141,1.0139,1.0132,1.0139,1.0056,1.013,1.013,1.0129,1.0129,1.0129,0.9687,0.9714,0.9747,0.9786,0.9811,0.984,0.987,0.9891,0.9927,0.9972,0.9981,1.0028,1.0063,1.0122,1.0145,1.0183,1.0178,1.0191,1.0195,1.0198,1.0201,1.0124,1.0191,1.0191,1.0191,1.0191,1.0191,0,0.9746,0.9768,0.9803,0.9846,0.9877,0.9877,0.9912,0.9939,0.9979,1.0011,1.0046,1.0097,1.0139,1.0169,1.0213,1.0238,1.0242,1.0249,1.0249,1.0254,1.0202,1.0191,1.0245,1.0245,1.0245,1.0245,1.0245,1.0245,0.9781,0.9829,0.9841,0.9902,0.9924,0.9969,0.9989,1.0017,1.0043,1.0099,1.0134,1.0153,1.0185,1.0231,1.0271,1.0279,1.0296,1.0304,1.0312,1.0263,1.0258,1.0252,1.0242,1.0306,1.0306,1.0362,1.0363,1.0363]}]]